Regional Weather Roundup
Issued by NWS

Home | Current Version | Previous Version | Text Only | Print | Product List | Glossary On
Versions: 1 2 3 4 5 6 7 8 9 10 11 12 13 14 15 16 17 18 19 20 21 22 23 24 25 26 27 28 29 30 31 32 33 34 35 36 37 38 39 40 41 42 43 44 45 46 47 48 49 50
000
ASHW40 PHFO 252112
RWRHI

WEATHER ROUNDUP FOR HAWAII
NATIONAL WEATHER SERVICE HONOLULU HI
1100 AM HST SAT FEB 25 2017

THIS IS AN AUTOMATED REPORT THAT HAS NOT BEEN QUALITY CONTROLLED.

NOTE..."FAIR" INDICATES FEW OR NO CLOUDS BELOW 12,000 FEET WITH NO
SIGNIFICANT WEATHER AND/OR OBSTRUCTIONS TO VISIBILITY.

* - THESE SITES REPORT LIMITED FIELDS

HIZ001>004-252200-
KAUAI-NIIHAU-

CITY           SKY/WX    TMP DP  RH WIND       PRES   REMARKS
LIHUE APT      MOSUNNY   72  56  57 N7        30.08S
PORT ALLEN*      N/A     75 N/A N/A E8          N/A
POIPU*           N/A     75 N/A N/A E5          N/A
PRINCEVILLE*     N/A     72 N/A N/A E5          N/A
KOKOLE POINT*  NOT AVBL
MOLOAA DAIRY*    N/A     72  55  56 E3G9        N/A
WAIMEA HTS*    NOT AVBL
PUU OPAE*      NOT AVBL
PUU LUA*       NOT AVBL
MAKAHA RIDGE*  NOT AVBL
$$

HIZ005>011-252200-
OAHU-

CITY           SKY/WX    TMP DP  RH WIND       PRES   REMARKS
HONOLULU       CLOUDY    74  56  53 VRB6      30.06S
KALAELOA       CLOUDY    75  58  55 E3        30.07S
KANEOHE MCB    NOT AVBL
WHEELER FIELD  NOT AVBL
BELLOWS*       NOT AVBL
KAHUKU*        NOT AVBL
WHEELER*       NOT AVBL
WAIANAE HARBOR NOT AVBL
DILLINGHAM*    NOT AVBL
KAHUKU TRN*      N/A     73  59  60 NW3G13      N/A
KAWAILOA*        N/A     72  59  64 SW2G9       N/A
KII*             N/A     73  59  60 E10         N/A
MAKUA RANGE*     N/A     75  55  50 SE2         N/A
OAHU FOREST NW NOT AVBL
SCHOFIELD BRK*   N/A     68  55  64 MISG        N/A
SCHOFIELD S*   NOT AVBL
WAIANAE VLY*   NOT AVBL
KUAOKALA*      NOT AVBL
HONOULIUULI*   NOT AVBL
MOKUOLOE IS*   NOT AVBL
PALEHUA*       NOT AVBL
WAIAWA PHB*    NOT AVBL
$$

HIZ012>013-252200-
MOLOKAI-

CITY           SKY/WX    TMP DP  RH WIND       PRES   REMARKS
MOLOKAI AIRPT  CLOUDY    74  60  61 VRB5      30.06F
KALAUPAPA      NOT AVBL
MAKAPULAPAI*   NOT AVBL
MOLOKAI 1*     NOT AVBL
PUU ALII*      NOT AVBL
$$

HIZ016-252200-
KAHOOLAWE-

CITY           SKY/WX    TMP DP  RH WIND       PRES   REMARKS
KAHOOLAWE*     NOT AVBL
HAKIOAWA*      NOT AVBL
HONOKANAIA*      N/A     74  61  63 N12G18      N/A
KANELOA*         N/A     70  63  78 NE15G22   30.11S
KEALIALALO*    NOT AVBL
LUA MAKIKA*    NOT AVBL
$$

HIZ014>015-252200-
LANAI-

CITY           SKY/WX    TMP DP  RH WIND       PRES   REMARKS
LANAI CITY       N/A     69  56  62 VRB6      30.09F
LANAI 1*       NOT AVBL
$$

HIZ017>028-252200-
MAUI-

CITY           SKY/WX    TMP DP  RH WIND       PRES   REMARKS
KAHULUI        PTSUNNY   73  64  73 N9        30.06F
KAPALUA-W MAUI PTSUNNY   72  59  64 N8        30.06
HANA AIRPORT   CLOUDY    68  64  88 CALM      30.10S
HANA*            N/A     70 N/A N/A NE3         N/A
HALEAKALA SUMM   N/A     43  -9  11 W8          N/A
MAALAEA BAY*   NOT AVBL
HALEAKALA*     NOT AVBL
KAUPO GAP*     NOT AVBL
KULA 1*          N/A     54  39  56 NW2         N/A
$$

HIZ023>026-252200-
BIG ISLAND OF HAWAII COAST AND LOWER SLOPES-

CITY           SKY/WX    TMP DP  RH WIND       PRES   REMARKS
KAILUA KONA    CLOUDY    76  59  55 W3        30.03S
HILO           CLOUDY    75  57  53 CALM      30.06F
HONOKAA*         N/A     70 N/A N/A VRB1        N/A
KAWAIHAE MWT*    N/A     77 N/A N/A W5          N/A
KAWAIHAE*      NOT AVBL
SOUTH POINT*     N/A     72 N/A N/A VRB12G18    N/A
UPOLU AIRPORT* NOT AVBL
KAMUELA*       CLEAR     66  54  63 NE9       30.12F
HAKALAU*         N/A     54  44  69 SE3         N/A
KALOKO-HONOKO* NOT AVBL
PALI 2*          N/A     64  54  68 NW7G13      N/A
KEALAKOMO*       N/A     79  55  44 E8          N/A
KAUPULEHU*     NOT AVBL
KAPAPALA*        N/A     71  55  55 W3          N/A
LOWER KAHUKU*  NOT AVBL
PUHE CS*       NOT AVBL
PUHO CS*       NOT AVBL
PTA KEAMUKU*     N/A     64  48  55 CALM        N/A
WAIKOLOA*      NOT AVBL
$$

HIZ027>028-252200-
BIG ISLAND OF HAWAII INTERIOR AND SUMMMITS-

CITY           SKY/WX    TMP DP  RH WIND       PRES   REMARKS
BRADSHAW FIELD CLOUDY    57  38  49 W5        30.29S
MK VISITOR CEN NOT AVBL
MAUNA KEA*       N/A     30 -26   8 SW33        N/A  WCI  14
MAUNA LOA*       N/A    N/A N/A N/A MISG        N/A
MAUNA LOA 1*   NOT AVBL
PTA KIPUKA*      N/A    N/A N/A N/A W5G10       N/A
PTA RANGE 17*    N/A     57  36  44 W3G9        N/A
PTA WEST*        N/A     68  50  52 NW8         N/A
NENE CABIN*    NOT AVBL
AHUMOA*        NOT AVBL
PTA PORTABLE*  NOT AVBL
PUU MALI*        N/A     52  46  82 NE3G10      N/A
$$

HIC003-252200-
NORTHWEST ISLANDS-

CITY           SKY/WX    TMP DP  RH WIND       PRES   REMARKS
MIDWAY ISLAND  LGT RAIN  61  57  88 NE10      30.23R FOG
MIDWAY NOS*    NOT AVBL
FRENCH FRIGATE NOT AVBL
$$

PHZ110>124-180-252200-
BUOY REPORTS

STATION/POSITION TIME  TEMP    WIND        PRES    WAVE   SWELL
                       AIR SEA DIR/SP/G            HT/PER HT/DIR
                 (UTC) (F)     (DEG/KT/KT) (MB)    (FT/S) (FT/D)
BUOY 51001       2050   69 72  190/  4/  4 1018.0F   8/15   8/300
BUOY 51101       2050   69 73  130/  2/  4 1018.7F   7/15   7/300
BUOY 51100       NOT AVBL
BUOY 51002       2050   76 77   70/ 16/ 19 1016.0F   7/16   5/330
BUOY 51003       2050   74 76   70/ 12/ 16 1016.5F   7/15   7/300
BUOY 51004       1950      76   60/ 14/ 17 1017.0    7/ 9   7/ 60
BARBERS PT BUOY  NOT AVBL
WAIMEA BAY BUOY  2032      74                N/A     7/15   7/330
KAILUA BAY BUOY  2034      75                N/A     5/ 9   3/350
LANAI BUOY       2045      77                N/A     3/15   2/290
BARBERS PT 2     NOT AVBL
PAUWELA MAUI     2039      75                N/A     7/15   5/330
HILO             2042      76                N/A     6/17   3/330
KANEOHE BAY BUOY 2036      75                N/A     4/ 9   2/360
HANALEI KAUAI    2052      75                N/A     7/14   5/310
KAHULUI HARBOR   2048   69 74  340/  8/ 10 1018.1F
HONOLULU HARBOR  2048   72 75  260/  3/  5 1018.6F
KILO NALU        NOT AVBL
HILO HARBOR      2048   78 76  150/  2/  6 1017.6F
MOKUOLOE         2036   71 72  310/  2/  2 1018.3S
NAWILIWILI       2048   72      60/  2/  3 1018.1F
WHOTS BUOY       NOT AVBL
BUOY 51028       NOT AVBL
$$

......................KEY........................................
  SKY/WX - SKY CONDITIONS/PRESENT WEATHER
  TMP    - TEMPERATURE IN FAHRENHEIT
  DWPT   - DEWPOINT IN FAHRENHEIT
  RH     - RELATIVE HUMIDITY IN PERCENT
  WIND   - DIRECTION AND SPEED /MPH FOR ISLANDS...KTS FOR BUOYS/
  PRES   - MEAN SEA LEVEL PRESSURE IN INCHES OF HG
  VSB    - VISIBILITY IN MILES
  HX     - HEAT INDEX
  WCI    - WIND CHILL INDEX
  VRB    - VARIABLE WIND DIRECTION
  N/A    - NOT AVAILABLE



USA.gov is the U.S. government's official web portal to all federal, state and local government web resources and services.